Weather History for Houma, LA

Change the Weather History Date:

Monday, November 18, 2013

  Actual Average Record
Temperature  
Mean Temperature 66 °F -  
Max Temperature 75 °F 72 °F 86 °F (1958)
Min Temperature 57 °F 51 °F 25 °F (1951)
Cooling Degree Days 1    
Growing Degree Days 16 (Base 50)    
Moisture  
Dew Point 62 °F    
Average Humidity 83    
Maximum Humidity 94    
Minimum Humidity 56    
Precipitation  
Precipitation 0.70 in - - ()
Sea Level Pressure  
Sea Level Pressure 30.02 in    
Wind  
Wind Speed 4 mph (North)    
Max Wind Speed 20 mph    
Max Gust Speed 32 mph    
Visibility 6 miles    
Events Fog , Rain , Thunderstorm    
Averages and records for this station are not official NWS values.
T = Trace of Precipitation, MM = Missing Value Source: NWS Daily Summary

Daily Weather History Graph

Daily Weather History Graph

Search for Another Location

Airport:

Trip Planner

Search our weather history database for the weather conditions in past years. The results will help you decide how hot, cold, wet, or windy it might be!

Date:

Astronomy

Nov. 18, 2013 Rise Set
Actual Time 6:29 AM CST 5:05 PM CST
Civil Twilight 6:04 AM CST 5:31 PM CST
Nautical Twilight 5:35 AM CST 6:00 PM CST
Astronomical Twilight 5:06 AM CST 6:28 PM CST
Moon 6:09 PM CST (11/18) 7:17 AM CST (11/18)
Length of Visible Light 11h 26m
Length of Day
10h 36m
Full, 99% of the Moon is Illuminated
Nov 18
Full
Nov 25
Last Quarter
Dec 2
New
Dec 9
First Quarter
Dec 17
Full

Hourly Weather History & Observations

Time (CST) Temp. Dew Point Humidity Pressure Visibility Wind Dir Wind Speed Gust Speed Precip Events Conditions
12:15 AM 75.9 °F 73.2 °F 91% 29.97 in 7.0 mi SSW 3.5 mph - N/A Thunderstorm Overcast
12:35 AM 75.7 °F 73.0 °F 91% 29.96 in 7.0 mi SW 3.5 mph - N/A Thunderstorm Thunderstorm
12:55 AM 75.7 °F 73.0 °F 91% 29.96 in 4.0 mi WSW 4.6 mph - N/A Thunderstorm Overcast
1:15 AM 75.6 °F 72.9 °F 91% 29.96 in 3.0 mi SW 3.5 mph - N/A Thunderstorm Overcast
1:35 AM 75.2 °F 72.5 °F 91% 29.96 in 3.0 mi Calm Calm - N/A   Overcast
1:55 AM 75.4 °F 72.7 °F 91% 29.97 in 0.8 mi Calm Calm - N/A Thunderstorm Overcast
2:15 AM 75.4 °F 72.7 °F 91% 29.97 in 0.5 mi Calm Calm - N/A Fog , Thunderstorm Fog
2:35 AM 75.4 °F 72.7 °F 91% 29.96 in 0.2 mi Calm Calm - N/A Rain , Thunderstorm Heavy Thunderstorms and Rain
2:55 AM 75.2 °F 72.7 °F 92% 29.97 in 0.5 mi Calm Calm - 0.02 in Rain , Thunderstorm Heavy Thunderstorms and Rain
3:15 AM 74.7 °F 72.3 °F 92% 29.96 in 1.5 mi WSW 4.6 mph - 0.40 in Rain Heavy Rain
3:35 AM 74.8 °F 72.5 °F 92% 29.96 in 3.0 mi West 3.5 mph - 0.65 in Rain Heavy Rain
3:55 AM 74.8 °F 72.5 °F 92% 29.96 in 7.0 mi WNW 5.8 mph - 0.67 in   Overcast
4:15 AM 74.8 °F 72.5 °F 92% 29.96 in 0.8 mi Calm Calm - N/A Thunderstorm Overcast
4:35 AM 74.7 °F 72.3 °F 92% 29.96 in 0.5 mi Calm Calm - N/A Rain , Thunderstorm Rain
4:55 AM 74.5 °F 72.3 °F 93% 29.97 in 0.8 mi Calm Calm - N/A Thunderstorm Overcast
5:50 AM 73.4 °F 69.8 °F 88% 29.97 in 0.5 mi East 3.5 mph - N/A   Drizzle
6:05 AM 71.6 °F 69.8 °F 94% 29.97 in - Calm Calm - N/A Thunderstorm Unknown
6:50 AM 71.6 °F 69.8 °F 94% 29.99 in - Calm Calm - N/A Thunderstorm Unknown
7:50 AM 71.6 °F 69.8 °F 94% 30.00 in - Calm Calm - N/A Thunderstorm Unknown
8:50 AM 73.4 °F 71.6 °F 94% 30.04 in - Calm Calm - N/A   Light Drizzle
9:27 AM 73.4 °F 71.6 °F 94% 30.04 in - Calm Calm - N/A   Light Drizzle
9:40 AM 71.6 °F 69.8 °F 94% 3.00 in - North 19.6 mph 25.3 mph N/A Rain Rain
9:50 AM 64.4 °F 62.6 °F 94% 30.06 in - North 11.5 mph 32.2 mph N/A Rain Rain
10:50 AM 62.6 °F 60.8 °F 94% 30.08 in - NNE 13.8 mph 20.7 mph N/A   Mostly Cloudy
11:48 AM 57.2 °F 55.4 °F 94% 30.06 in 7.0 mi NNE 17.3 mph - N/A   Mostly Cloudy
12:48 PM 62.6 °F 57.2 °F 82% 30.05 in 7.0 mi NNE 13.8 mph - N/A   Mostly Cloudy
1:50 PM 64.4 °F 48.2 °F 56% 30.02 in 7.0 mi NE 11.5 mph - N/A   Overcast
2:50 PM 64.4 °F 50.0 °F 59% 30.03 in 6.0 mi NE 6.9 mph - N/A   Overcast
3:48 PM 62.6 °F 55.4 °F 77% 30.04 in 7.0 mi NNE 6.9 mph - N/A   Mostly Cloudy
4:48 PM 62.6 °F 55.4 °F 77% 30.04 in 7.0 mi North 6.9 mph - N/A   Mostly Cloudy
5:48 PM 62.6 °F 57.2 °F 82% 30.05 in 7.0 mi NW 4.6 mph - N/A   Mostly Cloudy
6:15 PM 62.6 °F 56.1 °F 79% 30.04 in 10.0 mi NNW 3.5 mph - N/A   Overcast
6:35 PM 62.1 °F 57.4 °F 85% 30.05 in 10.0 mi Calm Calm - N/A   Mostly Cloudy
6:55 PM 62.6 °F 57.4 °F 83% 30.06 in 10.0 mi Calm Calm - N/A   Mostly Cloudy
7:15 PM 62.6 °F 57.2 °F 82% 30.06 in 7.0 mi Calm Calm - N/A   Overcast
7:35 PM 62.6 °F 56.5 °F 80% 30.07 in 10.0 mi Calm Calm - 0.01 in   Overcast
7:55 PM 63.0 °F 56.7 °F 80% 30.07 in 10.0 mi Calm Calm - 0.01 in   Overcast
8:15 PM 62.2 °F 56.8 °F 82% 30.07 in 7.0 mi Calm Calm - N/A   Overcast
8:35 PM 61.9 °F 56.7 °F 83% 30.07 in 10.0 mi North 4.6 mph - N/A   Overcast
8:55 PM 61.9 °F 55.6 °F 80% 30.08 in 10.0 mi NNW 4.6 mph - N/A   Overcast
9:15 PM 61.7 °F 55.4 °F 80% 30.08 in 10.0 mi North 5.8 mph - N/A   Mostly Cloudy
9:35 PM 61.5 °F 54.0 °F 76% 30.08 in 7.0 mi North 6.9 mph - N/A   Scattered Clouds
9:55 PM 61.9 °F 52.7 °F 72% 30.08 in 10.0 mi North 8.1 mph - N/A   Clear
10:15 PM 61.7 °F 50.5 °F 67% 30.07 in 10.0 mi NNE 9.2 mph - N/A   Clear
10:35 PM 62.1 °F 48.7 °F 62% 30.07 in 10.0 mi NNE 9.2 mph - N/A   Clear
10:55 PM 61.5 °F 48.0 °F 61% 30.07 in 10.0 mi NNE 8.1 mph - N/A   Clear
11:15 PM 60.8 °F 46.9 °F 60% 30.08 in 10.0 mi NNE 6.9 mph - N/A   Clear
11:35 PM 60.4 °F 46.4 °F 60% 30.08 in 10.0 mi North 6.9 mph - N/A   Clear
11:55 PM 59.9 °F 45.3 °F 59% 30.08 in 10.0 mi North 6.9 mph - N/A   Clear